RH
82 90 100 100 100 100 100 100 100 100 100 100 89 77 85 70 68 71 100 100 100 55 57 84 98 62 36 93 49 18 12 52 53 21 26 19 29 100 97 92 100 100 100 100 100
100 100 100 100 100 100 100 100 100 100 100 94 90 70 64 65 48 45 100 100 100 53 55 62 100 47 32 76 65 21 20 30 40 21 32 30 29 80 100 88 100 100 100 100 93
100 100 100 100 100 100 100 90 99 100 75 58 48 34 31 32 27 59 77 91 100 58 57 47 52 22 41 51 96 63 50 41 23 19 32 47 75 81 100 100 100 100 100 100 100
100 100 100 100 99 100 100 100 100 100 100 93 68 26 15 17 14 28 47 55 97 62 33 41 41 42 45 51 92 88 65 72 21 17 37 100 75 100 100 100 100 100 100 100 100
94 100 100 91 100 98 100 100 94 51 26 19 13 10 10 10 20 10 21 44 51 48 31 51 36 42 51 75 57 85 77 77 24 17 26 100 100 100 100 100 100 100 100 100 100
76 100 100 99 78 50 24 18 22 15 11 8 8 8 7 8 9 12 10 23 29 30 36 24 40 45 71 56 30 82 100 78 28 12 25 98 100 100 100 100 100 100 100 100 100
77 80 84 100 84 49 24 12 12 9 8 6 5 5 5 6 6 7 7 10 20 23 30 21 54 48 55 53 44 66 95 47 12 12 11 26 32 100 100 100 100 100 100 100 100
42 60 71 80 60 43 30 11 10 8 5 4 4 5 5 5 4 5 6 7 11 22 29 23 33 46 40 33 38 49 67 79 21 14 18 11 22 100 100 100 100 100 100 100 100
28 46 71 62 46 37 16 10 8 6 4 4 5 5 5 5 4 5 6 6 7 11 22 23 17 28 37 28 28 30 43 68 50 17 31 13 53 38 100 100 100 100 100 100 100
31 49 78 40 31 24 10 8 7 6 4 4 4 3 3 4 4 5 4 5 6 8 10 19 14 20 27 24 14 34 37 79 90 44 20 36 40 32 100 99 100 100 100 100 100
31 58 73 68 29 19 10 7 5 5 5 5 4 4 3 3 4 4 4 5 6 6 8 15 8 7 20 37 88 97 46 76 100 84 35 44 96 52 62 72 88 100 100 100 100
30 48 70 80 46 18 9 7 4 4 4 3 2 3 4 3 3 3 3 5 6 6 7 12 6 11 68 56 58 97 38 59 100 91 62 36 69 100 100 100 100 100 100 100 100
27 41 64 80 48 30 10 7 4 4 4 3 3 3 3 3 2 3 3 4 5 5 6 6 9 37 54 57 57 44 46 70 96 100 56 46 35 100 99 89 97 100 100 100 100
34 47 58 60 43 49 10 7 5 4 3 3 3 3 2 2 2 2 3 4 4 6 5 5 8 10 13 35 47 35 95 88 89 100 68 79 33 100 100 99 98 100 100 100 100
34 59 64 41 43 33 8 6 5 5 3 3 3 2 2 2 2 2 2 3 4 4 5 5 7 8 14 26 61 56 100 100 95 100 81 67 47 56 99 100 100 100 100 100 100
45 60 58 44 46 26 8 6 5 4 4 4 3 3 2 3 2 3 3 2 3 4 5 6 6 8 10 57 56 70 100 100 100 100 87 60 52 100 72 84 83 100 100 100 96
42 70 62 40 38 28 8 6 5 5 5 4 4 3 2 3 3 3 4 3 3 4 5 6 5 7 12 57 63 78 97 100 100 100 62 82 39 99 100 79 51 70 88 100 100
44 64 56 30 23 26 8 6 6 5 6 4 4 3 3 3 2 3 4 4 4 3 4 6 6 6 11 23 74 60 75 99 82 60 58 76 32 90 91 100 58 28 45 53 75
42 46 82 84 43 18 9 7 6 5 4 4 4 3 3 3 2 2 3 4 5 4 4 5 7 7 8 13 60 52 87 100 97 100 89 50 43 91 100 100 100 100 51 31 47
36 53 77 100 69 39 13 8 6 4 5 4 4 4 3 3 2 3 3 3 5 5 4 6 7 8 8 14 34 68 80 96 90 80 70 56 47 62 100 100 100 100 100 96 83
43 65 72 81 90 44 14 8 6 4 5 4 4 4 4 3 3 3 3 3 4 6 5 5 7 8 9 10 27 67 72 74 89 100 81 56 52 56 100 100 100 100 100 100 100
49 60 74 84 87 54 12 9 7 6 5 6 4 5 4 4 3 3 3 3 3 5 6 6 7 11 11 10 22 38 100 97 80 75 65 67 97 74 81 100 100 100 100 100 100
55 69 68 65 78 82 14 11 8 6 5 8 5 4 4 4 3 3 3 3 3 4 6 7 7 12 14 12 29 46 81 84 99 99 76 91 86 70 72 85 100 100 100 100 100
67 69 70 65 59 81 33 11 11 8 6 7 6 5 5 4 4 3 4 3 4 4 6 7 7 8 16 18 18 25 43 53 77 94 76 74 100 98 86 94 100 96 100 100 100
62 75 70 64 60 74 45 12 10 10 8 7 8 5 6 5 4 4 4 4 4 4 4 7 8 7 10 17 17 26 40 56 63 91 83 100 90 80 65 77 100 100 90 100 99
74 81 92 56 42 64 41 12 11 9 8 8 10 6 6 6 4 4 4 4 4 4 4 7 8 7 8 11 18 24 33 14 26 68 98 100 99 74 81 66 68 100 100 97 100
68 90 97 69 34 44 31 12 11 10 8 8 10 8 6 6 6 5 5 5 4 4 4 6 8 8 7 8 13 19 21 17 34 49 80 90 100 100 79 77 67 75 100 98 100
Wind_Speed
68 72 79 76 73 73 76 79 81 80 80 79 78 78 75 73 68 63 61 62 61 69 63 47 51 48 34 30 28 31 58 70 88 99 102 100 97 97 93 90 83 77 83 81 77
82 80 86 82 78 75 76 80 77 78 81 83 84 81 82 74 69 62 72 67 65 69 69 53 51 50 35 33 30 29 50 66 92 108 101 97 95 97 94 92 89 88 75 76 77
86 89 91 88 84 80 82 78 80 85 84 84 86 84 83 78 69 67 74 68 69 69 70 66 55 48 41 38 37 34 38 70 90 110 105 102 95 97 96 97 93 96 93 88 80
92 99 96 90 84 82 83 85 90 92 90 94 91 87 80 76 67 65 72 70 71 72 72 71 60 54 50 39 46 41 42 65 86 106 106 98 101 99 97 99 97 102 99 97 89
98 99 95 91 90 85 81 85 87 85 84 85 88 87 82 76 68 66 66 74 76 75 74 74 69 60 58 52 54 46 42 63 82 104 106 110 103 94 93 97 98 92 95 96 98
100 103 97 99 88 88 85 85 87 84 83 82 85 87 85 75 76 76 69 76 79 77 79 78 72 65 67 60 54 57 60 62 73 101 114 113 106 99 97 99 98 99 95 91 89
99 101 102 102 94 88 86 84 87 84 83 80 82 82 77 78 75 76 79 76 81 79 79 80 81 76 70 66 58 59 59 60 58 71 110 117 114 100 104 100 99 100 103 98 92
102 99 108 104 96 92 86 85 89 87 79 72 70 69 68 70 68 67 73 77 82 83 80 85 84 82 78 70 68 67 65 54 54 59 89 113 105 110 109 103 102 102 105 104 94
98 102 110 103 99 90 91 89 90 87 72 65 63 62 68 68 67 64 63 76 80 84 86 88 87 79 82 75 71 66 53 46 53 52 68 100 106 111 112 113 101 105 99 107 100
100 105 111 108 102 95 93 89 89 83 67 66 72 67 62 64 68 69 67 67 77 86 91 91 88 82 78 76 59 51 51 53 52 51 60 84 106 114 116 113 108 106 108 99 107
99 109 114 115 110 101 97 92 79 77 70 65 61 59 58 53 54 67 69 70 76 85 91 92 88 68 68 68 73 68 62 61 57 59 64 74 98 112 114 115 115 113 108 107 102
105 109 120 121 114 110 102 99 86 73 73 66 55 49 51 51 46 56 62 72 78 82 92 100 77 75 90 86 82 74 66 64 67 70 64 77 94 106 117 116 114 119 113 106 102
106 112 117 120 116 116 108 102 90 81 77 62 51 44 41 43 43 45 52 63 79 84 90 90 87 94 92 89 87 77 69 71 72 73 71 77 89 106 110 115 117 120 113 111 105
111 117 114 119 114 114 108 102 94 84 76 62 54 43 33 35 36 38 44 57 73 86 89 81 89 91 84 86 88 83 81 82 78 77 77 77 83 102 112 112 116 112 115 112 110
111 121 118 118 113 114 103 101 93 86 80 65 55 40 35 28 29 32 38 50 66 79 87 76 82 92 89 82 92 91 93 87 86 82 89 84 81 79 103 112 110 113 111 109 107
119 122 124 118 117 114 108 101 94 88 84 70 53 44 32 27 26 27 33 43 55 70 81 82 86 96 91 101 95 103 101 97 96 95 98 81 73 78 76 89 109 114 115 115 115
124 131 125 119 115 115 105 102 97 89 86 67 55 46 34 26 26 24 29 36 51 63 76 85 85 89 100 106 106 109 109 107 104 105 72 77 79 63 68 73 84 102 109 115 113
123 132 133 131 128 122 111 102 98 86 88 72 56 44 36 27 23 20 28 35 44 58 73 83 89 90 100 105 107 101 105 107 100 81 68 81 76 64 68 68 73 81 92 95 103
128 132 139 140 135 133 117 108 97 83 79 72 62 53 40 27 20 18 24 31 40 55 68 79 88 90 95 102 110 107 112 106 99 91 97 95 82 71 69 68 68 66 75 84 89
132 134 141 143 143 138 130 113 100 88 85 76 62 50 41 31 21 16 20 29 38 49 61 78 87 92 95 103 107 114 104 111 108 106 101 84 85 81 75 78 78 76 74 74 77
135 142 145 142 143 135 130 112 104 91 87 83 68 59 43 32 23 16 15 26 35 44 55 71 85 93 97 101 106 110 117 113 107 110 97 87 86 86 84 83 84 81 80 77 75
144 145 148 146 140 138 128 114 105 97 89 88 74 58 45 33 22 16 12 22 31 43 53 67 80 93 96 99 106 108 119 111 107 99 90 96 95 97 94 89 86 86 84 81 77
136 148 147 138 135 139 134 121 105 100 87 88 78 63 49 36 24 17 13 15 26 38 51 64 76 92 99 104 111 112 117 117 111 108 102 102 97 96 94 94 89 89 88 86 84
143 148 150 140 137 139 133 117 109 100 94 85 81 68 54 39 27 16 10 11 20 31 44 55 71 82 101 107 111 112 113 110 114 115 104 104 104 105 105 100 95 93 90 89 87
146 151 153 142 136 137 132 118 102 98 92 84 81 67 55 41 30 18 12 9 14 26 40 52 66 80 93 105 110 111 113 112 111 113 112 109 109 105 104 103 98 95 96 91 92
144 149 156 143 139 136 129 117 104 96 89 83 79 69 56 46 32 22 13 11 12 20 32 50 62 73 83 95 107 111 112 104 107 112 117 116 111 107 104 102 105 100 97 97 92
145 152 152 146 142 139 130 117 101 95 89 80 76 69 60 49 36 26 17 11 12 19 31 47 58 66 76 84 95 106 110 109 110 112 115 117 119 114 111 107 105 107 104 101 99
Wind_Direction
347 348 344 339 332 326 322 318 313 309 304 301 300 296 293 289 286 283 289 283 275 269 266 256 263 267 257 251 248 238 217 204 205 204 208 207 208 210 205 207 205 212 213 219 217
351 347 345 340 332 326 318 313 309 309 305 300 297 295 290 283 281 279 281 277 269 264 261 251 248 256 251 246 246 237 223 210 204 204 206 207 207 210 207 205 208 209 216 218 217
351 348 345 340 331 325 318 313 310 308 304 300 295 292 288 282 277 279 271 269 263 257 253 252 240 248 249 247 240 240 223 211 207 203 204 204 203 208 205 207 206 210 220 219 222
351 348 344 338 334 329 323 318 317 310 306 302 296 292 289 283 279 273 268 257 256 252 251 249 241 240 245 243 239 230 225 216 210 204 203 201 205 206 206 209 209 213 216 218 221
349 347 345 341 337 333 328 321 316 309 303 298 295 291 286 282 276 269 256 255 248 248 249 243 241 228 236 234 233 225 225 219 215 203 202 197 195 199 203 208 209 210 210 217 219
349 347 343 343 338 338 331 325 319 311 303 299 293 289 285 279 270 261 252 244 245 243 245 243 241 228 225 228 225 228 227 218 221 204 203 198 195 199 202 208 208 206 213 212 214
350 349 344 341 341 335 334 329 322 316 307 303 293 287 283 276 269 261 258 245 241 238 239 240 233 231 222 225 226 231 230 230 226 217 207 204 205 201 205 207 208 208 212 213 214
348 347 347 341 341 336 335 331 325 318 313 304 296 291 283 276 271 261 252 246 239 238 235 238 235 228 220 221 220 226 225 226 226 220 218 211 203 201 206 207 208 210 213 214 216
344 345 346 343 343 339 337 335 328 323 319 310 298 286 279 274 268 260 251 244 238 231 232 234 235 228 222 218 218 222 220 218 228 220 217 214 203 205 207 207 208 211 213 216 220
343 348 348 347 344 341 339 336 333 326 323 315 305 295 281 269 262 255 249 239 238 230 228 229 233 229 222 218 213 221 220 216 227 219 213 212 207 207 208 210 211 214 215 217 220
347 353 353 349 348 344 341 338 335 328 330 322 308 297 289 275 259 252 243 237 230 229 228 226 231 226 224 216 210 214 213 211 218 221 211 206 204 209 209 212 212 214 214 218 220
347 353 352 350 350 348 344 343 337 332 332 326 312 300 292 281 265 251 243 230 228 226 225 223 227 225 220 211 208 208 208 211 214 218 209 205 204 207 209 210 212 213 215 217 221
347 353 353 351 352 351 348 345 342 340 338 333 319 308 294 282 271 254 239 231 226 224 226 223 221 222 221 214 205 205 205 211 214 216 212 210 207 206 212 212 213 215 217 219 221
350 353 352 352 352 353 350 349 345 343 342 340 333 323 308 286 269 253 240 229 223 221 225 221 217 222 220 214 208 205 207 210 214 215 214 213 205 206 210 213 214 215 218 220 223
351 356 354 351 353 354 352 351 349 346 348 346 336 331 320 295 272 255 237 229 223 220 223 219 215 220 218 217 208 204 207 210 214 215 216 212 210 210 211 213 214 216 216 219 220
356 358 356 354 354 355 355 353 352 352 351 347 342 335 327 306 281 256 242 229 225 219 220 215 213 215 213 216 208 205 206 208 211 214 216 212 206 215 216 216 217 217 219 222 225
357 359 358 358 357 356 356 355 356 355 352 352 345 340 333 318 292 265 239 229 222 217 217 216 212 211 213 213 213 206 205 208 211 215 212 219 210 213 215 221 221 221 222 222 223
359 2 2 1 360 357 356 358 358 357 356 355 348 346 341 327 298 267 241 226 220 216 214 215 213 211 212 214 216 213 209 212 215 216 213 219 207 209 217 218 223 222 223 225 226
356 0 1 2 1 358 357 358 357 1 360 359 354 349 348 333 306 270 242 223 215 216 212 214 214 211 212 214 215 216 210 210 210 206 211 216 213 207 219 217 217 219 221 223 226
355 0 0 2 2 360 358 356 358 1 2 1 359 356 351 338 315 277 237 220 211 212 212 213 214 213 211 213 215 217 214 212 212 211 214 211 213 209 212 216 214 216 218 219 221
357 0 359 0 0 360 359 357 358 2 4 2 2 359 357 344 329 298 245 217 206 207 209 212 214 214 212 213 214 217 219 216 210 211 211 210 213 215 211 216 218 217 218 219 221
355 357 0 358 360 0 358 360 359 2 3 3 2 2 358 352 334 307 262 212 205 203 206 210 214 214 214 215 215 215 217 218 217 216 214 213 211 215 215 214 218 220 219 220 222
348 353 358 359 359 2 359 358 0 360 4 4 2 4 2 358 341 318 285 217 206 205 204 209 210 214 215 216 215 216 218 218 216 214 211 211 215 219 221 218 218 221 222 221 223
355 355 357 357 359 1 360 359 359 0 1 4 4 3 1 1 351 331 299 227 207 208 207 208 210 212 215 217 218 217 219 218 217 217 214 214 212 215 216 219 220 221 223 224 225
349 355 356 357 358 360 0 359 0 360 360 3 3 4 4 3 358 346 315 254 211 209 210 207 209 211 215 218 220 220 220 219 220 218 218 217 215 215 217 219 220 221 224 225 227
350 355 356 357 359 359 360 358 358 360 0 1 3 3 6 6 0 350 340 290 240 216 214 210 210 211 213 216 220 221 224 221 219 220 219 218 219 220 219 220 221 223 224 226 229
350 352 356 357 358 357 357 357 358 358 359 1 2 4 4 4 3 354 348 323 260 226 216 213 213 212 213 215 219 223 223 225 222 222 222 221 220 221 223 223 221 223 225 226 228